Погода в Красном Яре

Россия / Тюменская область     57°28′00″N   65°58′03″E
темп.,
°C
ветер,
м/с
пор.,
м/с
влажн.,
%
обл.,
%
осадки,
мм/ч
давл.,
гПа
погр.,
м
25 июля, вс
вс2523:00+15всв1297100 0.0 100626
02:00+14ссз1198100 0.0 100623
05:00+14ссв1295100 0.0 100655
08:00+17ссз2382100 0.0 1006245
11:00+20сз368243 1.8 1007445
14:00+21сз56689 1.4 10081160
17:00+20ссз575233 1.5 10101289
20:00+17ссз375962 0.0 1011267
26 июля, пн
пн2623:00+12сз39610 0.0 1013159
02:00+11сз311675 0.0 1014259
05:00+10ссз310755 0.0 1015272
08:00+15ссз37565 0.0 1016663
11:00+16сз3653100 0.0 10161189
14:00+17зсз464273 0.0 10151705
17:00+17зсз2548100 0.0 1014574
20:00+15зсз276185 0.0 1014250
27 июля, вт
вт2723:00+13юз266489 0.0 1014156
02:00+10зюз277688 0.0 1013126
05:00+9зюз28865 0.0 1013165
08:00+15зюз36685 0.0 1012500
11:00+20зюз475021 0.0 10101630
14:00+19з596885 0.9 10091683
17:00+16з47849 2.1 1009855
20:00+14з23899 0.6 100977
28 июля, ср
ср2823:00+11сз229234 0.6 100927
02:00+11сз2387100 0.0 100965
05:00+10сз1185100 0.0 100914
08:00+12зюз1378100 0.0 1008140
11:00+14юз3568100 0.0 1008651
14:00+16сз5749100 0.0 10081461
17:00+16сз485287 0.0 10091421
20:00+12ссз22705 0.0 101039
29 июля, чт
чт2923:00+9юз227880 0.0 101037
02:00+10ююз267181 0.0 1009140
05:00+9ююз398098 0.0 1008182
08:00+11ююз2678100 0.3 1008252
11:00+15зюз397323 0.6 1007690
14:00+20зюз6105656 0.3 10061831
17:00+15з4108598 1.3 1006346
20:00+15з399232 3.6 1007270